This is the latest recevied weather packets stored in our database for station/object VE3MNX. If no packets are shown the sender has not sent any weather packets the latest 10 day(s).
| Time | Temp. | Humidity | Pressure | Rain* | Wind** | Luminosity | Snow |
|---|---|---|---|---|---|---|---|
| 1777633693 | 5° C | 93% | 1011.9 hPa | 0.25 mm | - | - | - |
| 1777632793 | 5° C | 91% | 1011.9 hPa | 0 mm | - | - | - |
| 1777631893 | 5° C | 92% | 1012.2 hPa | 0 mm | - | - | - |
| 1777630993 | 5° C | 92% | 1011.9 hPa | 0 mm | - | - | - |
| 1777630094 | 5° C | 93% | 1012.2 hPa | 0.51 mm | - | - | - |
| 1777629195 | 5° C | 92% | 1012.5 hPa | 1.02 mm | - | - | - |
| 1777628293 | 5° C | 94% | 1012.5 hPa | 1.27 mm | - | - | - |
| 1777627394 | 5° C | 95% | 1013.2 hPa | 1.52 mm | - | - | - |
| 1777626493 | 5° C | 94% | 1012.9 hPa | 1.27 mm | - | - | - |
| 1777625592 | 5° C | 94% | 1012.9 hPa | 0.76 mm | - | - | - |
| 1777624692 | 5° C | 93% | 1013.2 hPa | 0.51 mm | - | - | - |
| 1777623794 | 5.56° C | 91% | 1012.9 hPa | 0.51 mm | - | - | - |
| 1777622892 | 5.56° C | 88% | 1012.5 hPa | 0.51 mm | - | - | - |
| 1777621995 | 5.56° C | 88% | 1012.5 hPa | 0.51 mm | - | - | - |
| 1777621093 | 6.11° C | 87% | 1012.5 hPa | 0.76 mm | - | - | - |
| 1777620192 | 6.11° C | 87% | 1012.9 hPa | 0.76 mm | - | - | - |
| 1777619292 | 6.11° C | 88% | 1013 hPa | 0.76 mm | - | - | - |
| 1777618393 | 6.11° C | 80% | 1013.2 hPa | 0.76 mm | - | - | - |
| 1777617493 | 6.11° C | 85% | 1013.2 hPa | 0.51 mm | - | - | - |
| 1777616594 | 6.67° C | 82% | 1013.2 hPa | 0.25 mm | - | - | - |
| 1777615693 | 6.67° C | 88% | 1013.2 hPa | 0 mm | - | - | - |
| 1777614792 | 7.22° C | 83% | 1013.2 hPa | 0 mm | - | - | - |
| 1777613894 | 7.22° C | 82% | 1012.9 hPa | 0 mm | - | - | - |
| 1777612993 | 7.22° C | 83% | 1012.9 hPa | 0 mm | - | - | - |
| 1777612092 | 7.22° C | 82% | 1013.2 hPa | 0 mm | - | - | - |
* Rain latest hour (hover to see other rain measurements)
** Current wind speed in m/s (hover to see current wind gust speed)